Weather History for KDUJ - March, 2013

Change the Weather History Date:

Thursday, March 28, 2013

  Actual Average Record
Temperature  
Mean Temperature 33 °F 39 °F  
Max Temperature 36 °F 49 °F 74 °F (2012)
Min Temperature 29 °F 29 °F 8 °F (1982)
Degree Days  
Heating Degree Days 32 26  
Month to date heating degree days 986 859  
Since 1 July heating degree days 5709 5882  
Cooling Degree Days 0 0  
Month to date cooling degree days 0 0  
Year to date cooling degree days 0 0  
Moisture  
Dew Point 28 °F    
Average Humidity 81    
Maximum Humidity 92    
Minimum Humidity 70    
Precipitation  
Precipitation T in 0.11 in 1.24 in (1985)
Month to date precipitation 1.13 2.97  
Sea Level Pressure  
Sea Level Pressure 30.12 in    
Wind  
Wind Speed 9 mph (WNW)    
Max Wind Speed 16 mph    
Max Gust Speed 21 mph    
Visibility 7 miles    
Events Snow    
T = Trace of Precipitation, MM = Missing Value Source: NWS Daily Summary

Daily Weather History Graph

Daily Weather History Graph

Search for Another Location

Airport or City:

Trip Planner

Search our weather history database for the weather conditions in past years. The results will help you decide how hot, cold, wet, or windy it might be!

Date:

Astronomy

Mar. 28, 2013 Rise Set
Actual Time 7:05 AM EDT 7:36 PM EDT
Civil Twilight 6:37 AM EDT 8:04 PM EDT
Nautical Twilight 6:04 AM EDT 8:37 PM EDT
Astronomical Twilight 5:31 AM EDT 9:10 PM EDT
Moon 9:27 PM EDT (3/28) 7:30 AM EDT (3/28)
Length of Visible Light 13h 26m
Length of Day
12h 31m
Full, 98% of the Moon is Illuminated
Mar 28
Full
Apr 3
Last Quarter
Apr 10
New
Apr 18
First Quarter
Apr 25
Full

Hourly Weather History & Observations

Time (EDT) Temp. Windchill Dew Point Humidity Pressure Visibility Wind Dir Wind Speed Gust Speed Precip Events Conditions
12:04 AM 30.2 °F 22.6 °F 28.4 °F 93% 30.04 in 4.0 mi West 8.1 mph - 0.00 in Snow Light Snow
12:11 AM 30.2 °F 21.9 °F 28.4 °F 93% 30.04 in 2.5 mi West 9.2 mph - 0.00 in Snow Light Snow
12:25 AM 30.2 °F 21.9 °F 28.4 °F 93% 30.04 in 4.0 mi West 9.2 mph - 0.00 in Snow Light Snow
12:56 AM 30.0 °F 21.1 °F 28.0 °F 92% 30.09 in 5.0 mi West 10.4 mph - 0.00 in   Overcast
1:56 AM 30.9 °F 20.7 °F 28.0 °F 89% 30.07 in 2.5 mi West 13.8 mph - 0.00 in Snow Light Snow
2:07 AM 30.2 °F 20.2 °F 28.4 °F 93% 30.02 in 1.5 mi West 12.7 mph - 0.00 in Snow Light Snow
2:22 AM 30.2 °F 21.3 °F 28.4 °F 93% 30.02 in 2.5 mi West 10.4 mph - 0.00 in Snow Light Snow
2:29 AM 30.2 °F 20.2 °F 28.4 °F 93% 30.02 in 4.0 mi West 12.7 mph - 0.00 in   Overcast
2:56 AM 30.9 °F 22.2 °F 28.9 °F 92% 30.07 in 9.0 mi West 10.4 mph - 0.00 in   Overcast
3:56 AM 30.9 °F 21.7 °F 28.9 °F 92% 30.06 in 6.0 mi West 11.5 mph - 0.00 in Snow Light Snow
4:45 AM 30.2 °F 21.9 °F 28.4 °F 93% 30.01 in 2.5 mi West 9.2 mph - 0.00 in Snow Light Snow
4:56 AM 30.9 °F 21.7 °F 28.9 °F 92% 30.06 in 3.0 mi WNW 11.5 mph - 0.00 in Snow Light Snow
5:00 AM 30.2 °F 21.9 °F 28.4 °F 93% 30.01 in 1.8 mi WNW 9.2 mph - 0.00 in Snow Light Snow
5:15 AM 30.2 °F 20.2 °F 26.6 °F 86% 30.02 in 2.0 mi NW 12.7 mph - 0.00 in Snow Light Snow
5:24 AM 30.2 °F 21.9 °F 26.6 °F 86% 30.03 in 7.0 mi NW 9.2 mph - 0.00 in   Overcast
5:56 AM 30.0 °F 21.1 °F 26.1 °F 85% 30.08 in 10.0 mi NW 10.4 mph - 0.00 in   Overcast
6:10 AM 28.4 °F 19.7 °F 26.6 °F 93% 30.04 in 10.0 mi WNW 9.2 mph - N/A   Overcast
6:56 AM 28.9 °F 20.4 °F 25.0 °F 85% 30.10 in 10.0 mi West 9.2 mph - N/A   Overcast
7:16 AM 28.4 °F 20.4 °F 24.8 °F 86% 30.06 in 10.0 mi WNW 8.1 mph - N/A   Mostly Cloudy
7:27 AM 28.4 °F 19.1 °F 24.8 °F 86% 30.06 in 10.0 mi WNW 10.4 mph - N/A   Overcast
7:56 AM 28.9 °F 19.8 °F 26.1 °F 89% 30.12 in 10.0 mi WNW 10.4 mph - N/A   Overcast
8:40 AM 30.2 °F 21.9 °F 26.6 °F 86% 30.08 in 10.0 mi WNW 9.2 mph - N/A   Overcast
8:56 AM 30.0 °F 21.7 °F 26.1 °F 85% 30.14 in 10.0 mi West 9.2 mph - N/A   Overcast
9:04 AM 30.2 °F 20.8 °F 26.6 °F 86% 30.09 in 10.0 mi WNW 11.5 mph - N/A   Overcast
9:20 AM 30.2 °F 21.9 °F 26.6 °F 86% 30.09 in 1.8 mi WNW 9.2 mph - 0.00 in Snow Light Snow
9:44 AM 30.2 °F 23.4 °F 28.4 °F 93% 30.10 in 1.0 mi WNW 6.9 mph - 0.00 in Snow Light Snow
9:47 AM 30.2 °F 24.3 °F 28.4 °F 93% 30.10 in 1.0 mi WNW 5.8 mph - 0.00 in Snow Light Snow
9:49 AM 30.2 °F 23.4 °F 28.4 °F 93% 30.10 in 0.8 mi NW 6.9 mph - 0.00 in Snow Light Snow
9:56 AM 30.0 °F 23.2 °F 28.0 °F 92% 30.16 in 1.0 mi WNW 6.9 mph - 0.00 in Snow Light Snow
10:07 AM 30.2 °F 22.6 °F 28.4 °F 93% 30.10 in 3.0 mi WNW 8.1 mph - 0.00 in Snow Light Snow
10:19 AM 30.2 °F 23.4 °F 28.4 °F 93% 30.10 in 7.0 mi WNW 6.9 mph - 0.00 in   Overcast
10:33 AM 30.2 °F 21.9 °F 26.6 °F 86% 30.11 in 4.0 mi NW 9.2 mph - 0.00 in   Overcast
10:42 AM 30.2 °F 24.3 °F 28.4 °F 93% 30.11 in 3.0 mi WNW 5.8 mph - 0.00 in   Overcast
10:44 AM 30.2 °F 22.6 °F 28.4 °F 93% 30.11 in 3.0 mi WNW 8.1 mph - 0.00 in   Overcast
10:56 AM 32.0 °F 25.6 °F 28.0 °F 85% 30.17 in 6.0 mi NW 6.9 mph - 0.00 in   Overcast
11:34 AM 32.0 °F 24.2 °F 28.4 °F 87% 30.12 in 8.0 mi NW 9.2 mph 17.3 mph N/A   Overcast
11:56 AM 33.1 °F 24.9 °F 28.0 °F 82% 30.17 in 8.0 mi WNW 10.4 mph - 0.00 in   Overcast
12:20 PM 33.8 °F 26.4 °F 28.4 °F 81% 30.12 in 5.0 mi WNW 9.2 mph - N/A   Haze
12:30 PM 33.8 °F 27.0 °F 28.4 °F 81% 30.12 in 2.5 mi NW 8.1 mph 18.4 mph N/A   Haze
12:37 PM 33.8 °F 27.0 °F 28.4 °F 81% 30.12 in 9.0 mi WNW 8.1 mph - N/A   Overcast
12:56 PM 34.0 °F 26.0 °F 27.0 °F 75% 30.17 in 10.0 mi West 10.4 mph - N/A   Overcast
1:32 PM 35.6 °F 29.9 °F 28.4 °F 75% 30.12 in 10.0 mi West 6.9 mph - N/A   Overcast
1:56 PM 35.1 °F 26.9 °F 27.0 °F 72% 30.17 in 10.0 mi WNW 11.5 mph - N/A   Overcast
2:56 PM 35.1 °F 27.4 °F 28.0 °F 76% 30.17 in 10.0 mi WNW 10.4 mph - N/A   Overcast
3:15 PM 35.6 °F 29.2 °F 28.4 °F 75% 30.12 in 10.0 mi West 8.1 mph - N/A   Overcast
3:24 PM 35.6 °F 28.6 °F 26.6 °F 70% 30.12 in 10.0 mi NW 9.2 mph 16.1 mph N/A   Overcast
3:39 PM 35.6 °F 28.6 °F 28.4 °F 75% 30.12 in 10.0 mi WNW 9.2 mph - N/A   Overcast
3:56 PM 36.0 °F 28.0 °F 27.0 °F 70% 30.16 in 10.0 mi NW 11.5 mph 16.1 mph N/A   Overcast
4:33 PM 33.8 °F 25.8 °F 30.2 °F 87% 30.12 in 2.0 mi West 10.4 mph - 0.00 in Snow Light Snow
4:42 PM 33.8 °F 25.3 °F 28.4 °F 81% 30.13 in 9.0 mi West 11.5 mph - 0.00 in   Overcast
4:52 PM 33.8 °F 24.8 °F 30.2 °F 87% 30.13 in 5.0 mi West 12.7 mph - 0.00 in   Overcast
4:56 PM 34.0 °F 26.0 °F 30.0 °F 85% 30.18 in 3.0 mi West 10.4 mph - 0.00 in Snow Light Snow
5:28 PM 33.8 °F 25.8 °F 28.4 °F 81% 30.13 in 10.0 mi WNW 10.4 mph - 0.00 in   Overcast
5:36 PM 33.8 °F 27.0 °F 28.4 °F 81% 30.14 in 10.0 mi West 8.1 mph - 0.00 in   Overcast
5:44 PM 33.8 °F 25.3 °F 28.4 °F 81% 30.14 in 10.0 mi West 11.5 mph - 0.00 in   Overcast
5:56 PM 34.0 °F 26.0 °F 28.0 °F 79% 30.20 in 10.0 mi WNW 10.4 mph - 0.00 in   Overcast
6:14 PM 33.8 °F 26.4 °F 28.4 °F 81% 30.15 in 10.0 mi WNW 9.2 mph - N/A   Overcast
6:45 PM 33.8 °F 25.8 °F 28.4 °F 81% 30.16 in 10.0 mi WNW 10.4 mph - N/A   Overcast
6:56 PM 33.1 °F 24.9 °F 28.0 °F 82% 30.22 in 10.0 mi WNW 10.4 mph - N/A   Overcast
7:04 PM 33.8 °F 25.3 °F 28.4 °F 81% 30.16 in 10.0 mi WNW 11.5 mph - N/A   Overcast
7:15 PM 33.8 °F 27.0 °F 28.4 °F 81% 30.17 in 10.0 mi WNW 8.1 mph - N/A   Overcast
7:56 PM 32.0 °F 25.6 °F 28.9 °F 88% 30.23 in 2.0 mi WNW 6.9 mph - 0.00 in Snow Light Snow
8:07 PM 32.0 °F 24.8 °F 28.4 °F 87% 30.18 in 9.0 mi WNW 8.1 mph - 0.00 in   Overcast
8:56 PM 32.0 °F 26.4 °F 28.9 °F 88% 30.25 in 10.0 mi WNW 5.8 mph - 0.00 in   Overcast
9:56 PM 32.0 °F 26.4 °F 28.9 °F 88% 30.25 in 10.0 mi West 5.8 mph - N/A   Overcast
10:56 PM 32.0 °F 27.5 °F 28.0 °F 85% 30.25 in 10.0 mi West 4.6 mph - N/A   Overcast
11:56 PM 32.0 °F 27.5 °F 28.0 °F 85% 30.24 in 10.0 mi West 4.6 mph - N/A   Overcast